Change the Weather History Date:

Monday, July 22, 2013

  Actual Average Record
Temperature  
Mean Temperature 82 °F 75 °F  
Max Temperature 96 °F 87 °F 107 °F (1901)
Min Temperature 68 °F 64 °F 46 °F (1942)
Degree Days  
Heating Degree Days 0 0  
Month to date heating degree days 0 0  
Since 1 June heating degree days 42 30  
Since 1 July heating degree days 0 0  
Cooling Degree Days 17 10  
Month to date cooling degree days 255 218  
Year to date cooling degree days 502 465  
Since 1 June cooling degree days 438 404  
Growing Degree Days 32 (Base 50)    
Moisture  
Dew Point 65 °F    
Average Humidity 64    
Maximum Humidity 90    
Minimum Humidity 38    
Precipitation  
Precipitation 0.00 in 0.11 in 1.15 in (1910)
Month to date precipitation 0.59 2.40  
Year to date precipitation 14.19 16.36  
Snow  
Snow 0.00 in 0.00 in - ()
Month to date snowfall 0.0 0.0  
Since 1 July snowfall 0.0 0.0  
Snow Depth 0.00 in    
Sea Level Pressure  
Sea Level Pressure 29.77 in    
Wind  
Wind Speed 11 mph (WNW)    
Max Wind Speed 20 mph    
Max Gust Speed 26 mph    
Visibility 10 miles    
Events      
T = Trace of Precipitation, MM = Missing Value Source: NWS Daily Summary

Daily Weather History Graph

Daily Weather History Graph

Search for Another Location

Airport or City:

Trip Planner

Search our weather history database for the weather conditions in past years. The results will help you decide how hot, cold, wet, or windy it might be!

Date:

Astronomy

Jul. 22, 2013 Rise Set
Actual Time 6:13 AM CDT 8:58 PM CDT
Civil Twilight 5:41 AM CDT 9:30 PM CDT
Nautical Twilight 5:00 AM CDT 10:11 PM CDT
Astronomical Twilight 4:13 AM CDT 10:57 PM CDT
Moon 8:43 PM CDT (7/22) 6:12 AM CDT (7/22)
Length of Visible Light 15h 49m
Length of Day
14h 44m
Full, 100% of the Moon is Illuminated
Jul 22
Full
Jul 22
Full
Jul 29
Last Quarter
Aug 6
New
Aug 14
First Quarter

Hourly Weather History & Observations

Time (CDT) Temp. Heat Index Dew Point Humidity Pressure Visibility Wind Dir Wind Speed Gust Speed Precip Events Conditions
12:56 AM 72.0 °F - 68.0 °F 87% 29.78 in 10.0 mi South 5.8 mph - N/A   Clear
1:56 AM 75.0 °F - 69.1 °F 82% 29.76 in 10.0 mi SSW 13.8 mph - N/A   Clear
2:56 AM 73.0 °F - 68.0 °F 84% 29.75 in 10.0 mi SSW 12.7 mph - N/A   Clear
3:56 AM 73.0 °F - 68.0 °F 84% 29.73 in 10.0 mi SSW 13.8 mph - N/A   Clear
4:56 AM 72.0 °F - 68.0 °F 87% 29.73 in 10.0 mi SSW 15.0 mph - N/A   Clear
5:56 AM 71.1 °F - 66.9 °F 87% 29.74 in 10.0 mi SW 6.9 mph - N/A   Clear
6:56 AM 71.1 °F - 66.9 °F 87% 29.74 in 10.0 mi East 4.6 mph - N/A   Clear
7:56 AM 75.9 °F - 68.0 °F 76% 29.74 in 10.0 mi SSW 5.8 mph - N/A   Clear
8:56 AM 80.1 °F 82.9 °F 69.1 °F 69% 29.75 in 10.0 mi SW 6.9 mph - N/A   Clear
9:56 AM 84.9 °F 88.2 °F 68.0 °F 57% 29.76 in 10.0 mi SW 8.1 mph - N/A   Clear
10:56 AM 86.0 °F 88.2 °F 66.0 °F 51% 29.76 in 10.0 mi WSW 10.4 mph - N/A   Partly Cloudy
11:56 AM 91.9 °F 94.5 °F 66.0 °F 42% 29.77 in 10.0 mi WNW 8.1 mph - N/A   Clear
12:56 PM 93.0 °F 97.4 °F 68.0 °F 44% 29.77 in 10.0 mi Variable 3.5 mph - N/A   Clear
1:56 PM 93.9 °F 96.1 °F 64.9 °F 38% 29.76 in 10.0 mi Variable 3.5 mph - N/A   Clear
2:56 PM 95.0 °F 101.3 °F 70.0 °F 44% 29.76 in 10.0 mi NNW 13.8 mph 20.7 mph N/A   Partly Cloudy
3:56 PM 91.9 °F 96.9 °F 69.1 °F 47% 29.77 in 10.0 mi North 12.7 mph 21.9 mph N/A   Clear
4:56 PM 91.0 °F 91.5 °F 62.1 °F 38% 29.78 in 10.0 mi North 13.8 mph - N/A   Clear
5:56 PM 89.1 °F 88.8 °F 60.1 °F 38% 29.79 in 10.0 mi North 17.3 mph - N/A   Clear
6:56 PM 86.0 °F 85.4 °F 59.0 °F 40% 29.80 in 10.0 mi NNW 13.8 mph - N/A   Clear
7:56 PM 82.0 °F 81.7 °F 57.0 °F 42% 29.81 in 10.0 mi NNW 9.2 mph - N/A   Clear
8:56 PM 78.1 °F - 57.0 °F 48% 29.81 in 10.0 mi North 11.5 mph - N/A   Clear
9:56 PM 75.0 °F - 59.0 °F 57% 29.82 in 10.0 mi North 13.8 mph - N/A   Clear
10:56 PM 75.9 °F - 57.9 °F 54% 29.84 in 10.0 mi North 16.1 mph - N/A   Clear
11:56 PM 75.0 °F - 59.0 °F 57% 29.85 in 10.0 mi NE 6.9 mph 17.3 mph N/A   Clear